TimeEDT,TemperatureF,Dew PointF,Humidity,Sea Level PressureIn,VisibilityMPH,Wind Direction,Wind SpeedMPH,Gust SpeedMPH,PrecipitationIn,Events,Conditions,WindDirDegrees,DateUTC
12:53 AM,41.0,37.0,86,29.71,10.0,West,13.8,-,N/A,,Overcast,280,2012-11-01 04:53:00
2:53 AM,42.1,36.0,79,29.71,10.0,WNW,9.2,-,N/A,,Overcast,290,2012-11-01 06:53:00
3:53 AM,42.1,36.0,79,29.71,10.0,WNW,10.4,-,N/A,,Overcast,290,2012-11-01 07:53:00
4:53 AM,42.1,37.0,82,29.71,10.0,West,11.5,-,N/A,,Overcast,280,2012-11-01 08:53:00
5:53 AM,42.1,37.0,82,29.72,10.0,West,11.5,-,N/A,,Overcast,280,2012-11-01 09:53:00
6:53 AM,42.1,36.0,79,29.73,10.0,West,10.4,-,N/A,,Overcast,280,2012-11-01 10:53:00
8:53 AM,41.0,35.1,79,29.75,10.0,WNW,9.2,-,N/A,,Overcast,290,2012-11-01 12:53:00
9:53 AM,41.0,34.0,76,29.77,10.0,West,13.8,-,N/A,,Overcast,280,2012-11-01 13:53:00
10:53 AM,41.0,34.0,76,29.78,10.0,WNW,13.8,-,N/A,,Overcast,290,2012-11-01 14:53:00
11:53 AM,42.1,34.0,73,29.78,10.0,WNW,12.7,-,N/A,,Overcast,300,2012-11-01 15:53:00
1:45 PM,44.6,32.0,61,29.75,10.0,WNW,13.8,-,N/A,,Partly Cloudy,300,2012-11-01 17:45:00
1:53 PM,45.0,32.0,60,29.75,10.0,West,11.5,-,N/A,,Partly Cloudy,280,2012-11-01 17:53:00
2:53 PM,50.0,30.9,48,29.73,10.0,WNW,17.3,23.0,N/A,,Clear,290,2012-11-01 18:53:00
3:53 PM,50.0,30.0,46,29.73,10.0,West,15.0,-,N/A,,Overcast,280,2012-11-01 19:53:00
5:53 PM,48.0,28.9,48,29.74,10.0,West,13.8,-,N/A,,Mostly Cloudy,280,2012-11-01 21:53:00
6:53 PM,46.0,28.9,51,29.76,10.0,West,13.8,-,N/A,,Overcast,280,2012-11-01 22:53:00
7:53 PM,46.0,26.1,46,29.78,10.0,WNW,12.7,-,N/A,,Overcast,300,2012-11-01 23:53:00
8:53 PM,45.0,26.1,48,29.79,10.0,WNW,18.4,-,N/A,,Overcast,290,2012-11-02 00:53:00
9:53 PM,43.0,26.1,51,29.81,10.0,NW,17.3,-,N/A,,Overcast,310,2012-11-02 01:53:00
10:53 PM,42.1,28.0,58,29.81,10.0,WNW,10.4,-,N/A,,Overcast,300,2012-11-02 02:53:00
11:53 PM,41.0,28.0,60,29.82,10.0,WNW,12.7,-,N/A,,Overcast,300,2012-11-02 03:53:00